| time (UTC) | temp F | wind direction | speed MPH | gust MPH | rain 1hr in | rain 24hr in | rain mn in | humidity % | barometer mb |
| 20260504081537 | 49 | 306 | 12.0 | 19.0 | 0.00 | 0.00 | 0.00 | 52 | 1013.2 |
| 20260504081018 | 49 | 302 | 10.0 | 19.0 | 0.00 | 0.00 | 0.00 | 52 | 1013.1 |
| 20260504080519 | 49 | 322 | 13.0 | 20.0 | 0.00 | 0.00 | 0.00 | 51 | 1013.1 |
| 20260504080340 | 49 | 327 | 12.0 | 20.0 | 0.00 | 0.00 | 0.00 | 51 | 1013.0 |
| 20260504070107 | 51 | 326 | 14.0 | 20.0 | 0.00 | 0.00 | 0.00 | 42 | 1011.3 |
| 20260504050516 | 56 | 318 | 18.0 | 28.0 | 0.00 | 0.00 | 0.00 | 40 | 1007.9 |
| 20260504045515 | 56 | 321 | 9.0 | 14.0 | 0.00 | 0.02 | 0.00 | 40 | 1007.8 |
| 20260504045019 | 56 | 332 | 8.0 | 14.0 | 0.00 | 0.02 | 0.00 | 40 | 1007.6 |
| 20260504044551 | 56 | 319 | 9.0 | 13.0 | 0.00 | 0.02 | 0.00 | 39 | 1007.5 |
| 20260504044015 | 56 | 327 | 7.0 | 11.0 | 0.00 | 0.02 | 0.00 | 39 | 1007.5 |
| 20260504043518 | 57 | 325 | 6.0 | 10.0 | 0.00 | 0.02 | 0.00 | 39 | 1007.5 |
| 20260504043051 | 57 | 299 | 4.0 | 10.0 | 0.00 | 0.02 | 0.00 | 38 | 1007.3 |
| 20260504042517 | 57 | 317 | 7.0 | 12.0 | 0.00 | 0.02 | 0.00 | 38 | 1007.3 |
| 20260504042016 | 58 | 342 | 7.0 | 13.0 | 0.00 | 0.02 | 0.00 | 37 | 1007.0 |
| 20260504041551 | 58 | 327 | 7.0 | 15.0 | 0.00 | 0.02 | 0.00 | 37 | 1007.1 |
| 20260504041017 | 59 | 325 | 8.0 | 17.0 | 0.00 | 0.02 | 0.00 | 36 | 1007.0 |
| 20260504040521 | 59 | 333 | 10.0 | 17.0 | 0.00 | 0.02 | 0.00 | 35 | 1006.8 |
| 20260504035522 | 60 | 316 | 9.0 | 16.0 | 0.00 | 0.02 | 0.00 | 34 | 1006.6 |
| 20260504035019 | 60 | 325 | 9.0 | 18.0 | 0.00 | 0.02 | 0.00 | 33 | 1006.5 |
| 20260504034600 | 60 | 322 | 11.0 | 18.0 | 0.00 | 0.02 | 0.00 | 33 | 1006.5 |
| 20260504034021 | 60 | 317 | 10.0 | 16.0 | 0.00 | 0.02 | 0.00 | 32 | 1006.4 |
| 20260504033512 | 60 | 321 | 8.0 | 14.0 | 0.00 | 0.02 | 0.00 | 32 | 1006.2 |
| 20260504033053 | 59 | 320 | 7.0 | 10.0 | 0.00 | 0.02 | 0.00 | 32 | 1006.0 |
| 20260504032519 | 59 | 328 | 4.0 | 11.0 | 0.00 | 0.02 | 0.00 | 32 | 1005.9 |
| 20260504032018 | 59 | 302 | 7.0 | 12.0 | 0.00 | 0.02 | 0.00 | 31 | 1005.9 |
| 20260504031600 | 59 | 306 | 6.0 | 12.0 | 0.00 | 0.02 | 0.00 | 30 | 1005.8 |
| 20260504031019 | 59 | 331 | 0.0 | 2.0 | 0.00 | 0.02 | 0.00 | 29 | 1005.7 |
| 20260504030519 | 59 | 328 | 0.0 | 2.0 | 0.00 | 0.02 | 0.00 | 29 | 1005.6 |
| 20260504030101 | 59 | 328 | 0.0 | 3.0 | 0.00 | 0.02 | 0.00 | 29 | 1005.5 |
| 20260504025514 | 59 | 345 | 1.0 | 3.0 | 0.00 | 0.02 | 0.00 | 29 | 1005.5 |
| 20260504025019 | 59 | 330 | 0.0 | 2.0 | 0.00 | 0.02 | 0.00 | 29 | 1005.6 |
| 20260504024555 | 60 | 333 | 0.0 | 1.0 | 0.00 | 0.02 | 0.00 | 29 | 1005.8 |
| 20260504024017 | 60 | 333 | 0.0 | 1.0 | 0.00 | 0.02 | 0.00 | 28 | 1005.6 |
| 20260504023512 | 61 | 333 | 0.0 | 3.0 | 0.00 | 0.02 | 0.00 | 28 | 1005.7 |
| 20260504023059 | 62 | 333 | 1.0 | 3.0 | 0.00 | 0.02 | 0.00 | 27 | 1005.6 |
| 20260504022516 | 63 | 331 | 1.0 | 4.0 | 0.00 | 0.02 | 0.00 | 26 | 1005.4 |
| 20260504022017 | 64 | 339 | 1.0 | 6.0 | 0.00 | 0.02 | 0.00 | 26 | 1005.6 |
| 20260504021555 | 65 | 325 | 3.0 | 6.0 | 0.00 | 0.02 | 0.00 | 26 | 1005.7 |
| 20260504021019 | 66 | 309 | 3.0 | 10.0 | 0.00 | 0.02 | 0.00 | 25 | 1005.7 |
| 20260504020516 | 67 | 309 | 4.0 | 10.0 | 0.00 | 0.02 | 0.00 | 24 | 1005.6 |
| 20260504020050 | 68 | 311 | 5.0 | 13.0 | 0.00 | 0.02 | 0.00 | 23 | 1005.3 |
| 20260504015516 | 69 | 325 | 7.0 | 13.0 | 0.00 | 0.02 | 0.00 | 23 | 1005.4 |
| 20260504015016 | 69 | 281 | 8.0 | 13.0 | 0.00 | 0.02 | 0.00 | 22 | 1005.6 |
| 20260504014552 | 70 | 307 | 9.0 | 13.0 | 0.00 | 0.02 | 0.00 | 21 | 1005.5 |
| 20260504014018 | 70 | 300 | 7.0 | 15.0 | 0.00 | 0.02 | 0.00 | 22 | 1005.5 |
| 20260504013517 | 70 | 296 | 9.0 | 14.0 | 0.00 | 0.02 | 0.00 | 21 | 1005.6 |
| 20260504013107 | 71 | 283 | 9.0 | 15.0 | 0.00 | 0.02 | 0.00 | 21 | 1005.5 |
| 20260504012517 | 71 | 275 | 9.0 | 15.0 | 0.00 | 0.02 | 0.00 | 20 | 1005.4 |
| 20260504012010 | 72 | 318 | 8.0 | 15.0 | 0.00 | 0.02 | 0.00 | 20 | 1005.4 |
| 20260504011545 | 72 | 280 | 6.0 | 12.0 | 0.00 | 0.02 | 0.00 | 20 | 1005.6 |
| 20260504011016 | 72 | 298 | 7.0 | 13.0 | 0.00 | 0.02 | 0.00 | 20 | 1005.7 |
| 20260504010517 | 73 | 305 | 7.0 | 12.0 | 0.00 | 0.02 | 0.00 | 19 | 1005.7 |
| 20260504010050 | 73 | 275 | 7.0 | 13.0 | 0.00 | 0.02 | 0.00 | 19 | 1005.8 |
| 20260504005516 | 73 | 253 | 6.0 | 14.0 | 0.00 | 0.02 | 0.00 | 19 | 1005.9 |
| 20260504005015 | 74 | 270 | 9.0 | 14.0 | 0.00 | 0.02 | 0.00 | 18 | 1006.0 |
| 20260504004600 | 74 | 231 | 6.0 | 10.0 | 0.00 | 0.02 | 0.00 | 18 | 1005.9 |
| 20260504004016 | 74 | 237 | 3.0 | 10.0 | 0.00 | 0.02 | 0.00 | 21 | 1006.1 |
| 20260504003516 | 74 | 227 | 7.0 | 13.0 | 0.00 | 0.02 | 0.00 | 19 | 1006.1 |
| 20260504003049 | 74 | 250 | 10.0 | 13.0 | 0.00 | 0.02 | 0.00 | 17 | 1006.2 |
| 20260504002513 | 74 | 265 | 8.0 | 13.0 | 0.00 | 0.02 | 0.00 | 19 | 1006.1 |
| 20260504002014 | 74 | 216 | 8.0 | 16.0 | 0.00 | 0.02 | 0.00 | 18 | 1006.0 |
| 20260504001549 | 74 | 250 | 11.0 | 16.0 | 0.00 | 0.02 | 0.00 | 18 | 1006.2 |
| 20260504001020 | 74 | 254 | 5.0 | 12.0 | 0.00 | 0.02 | 0.00 | 18 | 1006.1 |
| 20260504000527 | 74 | 210 | 6.0 | 17.0 | 0.00 | 0.02 | 0.00 | 19 | 1006.2 |
| 20260504000055 | 74 | 213 | 9.0 | 17.0 | 0.00 | 0.02 | 0.00 | 18 | 1006.3 |
| 20260503235509 | 74 | 259 | 9.0 | 15.0 | 0.00 | 0.02 | 0.00 | 19 | 1006.4 |
| 20260503235039 | 74 | 270 | 10.0 | 16.0 | 0.00 | 0.02 | 0.00 | 19 | 1006.5 |
| 20260503234553 | 74 | 275 | 11.0 | 21.0 | 0.00 | 0.02 | 0.00 | 18 | 1006.5 |
| 20260503234015 | 75 | 286 | 12.0 | 21.0 | 0.00 | 0.02 | 0.00 | 18 | 1006.5 |
| 20260503233513 | 75 | 209 | 12.0 | 17.0 | 0.00 | 0.02 | 0.00 | 17 | 1006.4 |
| 20260503233051 | 74 | 246 | 9.0 | 18.0 | 0.00 | 0.02 | 0.00 | 18 | 1006.6 |
| 20260503232511 | 74 | 197 | 10.0 | 19.0 | 0.00 | 0.02 | 0.00 | 17 | 1006.5 |
| 20260503232027 | 74 | 248 | 6.0 | 17.0 | 0.00 | 0.02 | 0.00 | 18 | 1006.6 |
| 20260503231603 | 74 | 213 | 9.0 | 20.0 | 0.00 | 0.02 | 0.00 | 18 | 1006.6 |
| 20260503231021 | 74 | 259 | 11.0 | 20.0 | 0.00 | 0.02 | 0.00 | 18 | 1006.6 |
| 20260503230517 | 74 | 259 | 10.0 | 19.0 | 0.00 | 0.02 | 0.00 | 19 | 1006.6 |
| 20260503230059 | 74 | 246 | 8.0 | 14.0 | 0.00 | 0.02 | 0.00 | 17 | 1006.6 |
| 20260503225520 | 75 | 270 | 8.0 | 18.0 | 0.00 | 0.02 | 0.00 | 20 | 1006.6 |
| 20260503225017 | 74 | 230 | 10.0 | 18.0 | 0.00 | 0.02 | 0.00 | 18 | 1006.8 |
| 20260503224555 | 74 | 256 | 6.0 | 13.0 | 0.00 | 0.02 | 0.00 | 19 | 1006.9 |
| 20260503224028 | 73 | 199 | 9.0 | 19.0 | 0.00 | 0.02 | 0.00 | 18 | 1006.9 |
| 20260503223519 | 74 | 219 | 12.0 | 19.0 | 0.00 | 0.02 | 0.00 | 18 | 1007.0 |
| 20260503223047 | 74 | 225 | 9.0 | 19.0 | 0.00 | 0.02 | 0.00 | 19 | 1007.1 |
| 20260503222514 | 74 | 270 | 9.0 | 18.0 | 0.00 | 0.02 | 0.00 | 19 | 1007.1 |
| 20260503222015 | 74 | 229 | 12.0 | 20.0 | 0.00 | 0.02 | 0.00 | 18 | 1007.1 |
| 20260503221552 | 74 | 248 | 13.0 | 20.0 | 0.00 | 0.02 | 0.00 | 19 | 1007.3 |
| 20260503221013 | 73 | 198 | 7.0 | 19.0 | 0.00 | 0.02 | 0.00 | 18 | 1007.4 |
| 20260503220518 | 73 | 211 | 9.0 | 19.0 | 0.00 | 0.02 | 0.00 | 18 | 1007.4 |
| 20260503215516 | 74 | 250 | 14.0 | 19.0 | 0.00 | 0.02 | 0.00 | 18 | 1007.5 |
| 20260503215016 | 73 | 234 | 8.0 | 21.0 | 0.00 | 0.02 | 0.00 | 18 | 1007.6 |
| 20260503214543 | 73 | 199 | 14.0 | 21.0 | 0.00 | 0.02 | 0.00 | 17 | 1007.6 |
| 20260503214015 | 74 | 233 | 8.0 | 20.0 | 0.00 | 0.02 | 0.00 | 19 | 1007.7 |
| 20260503213519 | 74 | 220 | 14.0 | 27.0 | 0.00 | 0.02 | 0.00 | 19 | 1007.8 |
| 20260503213054 | 73 | 208 | 17.0 | 27.0 | 0.00 | 0.02 | 0.00 | 18 | 1007.9 |
| 20260503212514 | 73 | 183 | 11.0 | 21.0 | 0.00 | 0.02 | 0.00 | 19 | 1007.9 |
| 20260503212017 | 73 | 207 | 12.0 | 20.0 | 0.00 | 0.02 | 0.00 | 19 | 1008.0 |
| 20260503211600 | 73 | 238 | 8.0 | 19.0 | 0.00 | 0.02 | 0.00 | 18 | 1008.0 |
| 20260503211016 | 73 | 200 | 13.0 | 20.0 | 0.00 | 0.02 | 0.00 | 19 | 1008.2 |
| 20260503210516 | 73 | 265 | 7.0 | 24.0 | 0.00 | 0.02 | 0.00 | 20 | 1008.2 |
| 20260503210048 | 73 | 230 | 14.0 | 24.0 | 0.00 | 0.02 | 0.00 | 17 | 1008.5 |
| 20260503205524 | 73 | 177 | 11.0 | 24.0 | 0.00 | 0.02 | 0.00 | 19 | 1008.4 |
| 20260503205016 | 73 | 196 | 15.0 | 24.0 | 0.00 | 0.02 | 0.00 | 18 | 1008.5 |
| 20260503204554 | 73 | 235 | 11.0 | 23.0 | 0.00 | 0.02 | 0.00 | 19 | 1008.7 |
| 20260503204017 | 72 | 215 | 12.0 | 23.0 | 0.00 | 0.02 | 0.00 | 19 | 1008.8 |
| 20260503203515 | 72 | 220 | 6.0 | 14.0 | 0.00 | 0.02 | 0.00 | 20 | 1008.6 |
| 20260503203054 | 72 | 212 | 8.0 | 25.0 | 0.00 | 0.02 | 0.00 | 21 | 1008.9 |
| 20260503202520 | 73 | 243 | 11.0 | 25.0 | 0.00 | 0.02 | 0.00 | 20 | 1008.9 |
| 20260503202017 | 73 | 217 | 10.0 | 19.0 | 0.00 | 0.02 | 0.00 | 21 | 1009.0 |
| 20260503201555 | 72 | 203 | 13.0 | 20.0 | 0.00 | 0.02 | 0.00 | 21 | 1009.0 |
| 20260503201017 | 72 | 218 | 10.0 | 22.0 | 0.00 | 0.02 | 0.00 | 20 | 1009.0 |
| 20260503200514 | 73 | 194 | 12.0 | 24.0 | 0.00 | 0.02 | 0.00 | 20 | 1009.0 |
| 20260503200058 | 73 | 204 | 13.0 | 21.0 | 0.00 | 0.02 | 0.00 | 21 | 1009.1 |
| 20260503195521 | 72 | 204 | 15.0 | 21.0 | 0.00 | 0.02 | 0.00 | 21 | 1009.2 |
| 20260503195021 | 71 | 220 | 6.0 | 21.0 | 0.00 | 0.02 | 0.00 | 25 | 1009.1 |
| 20260503194557 | 71 | 177 | 11.0 | 23.0 | 0.00 | 0.02 | 0.00 | 22 | 1009.5 |
| 20260503194023 | 71 | 204 | 15.0 | 24.0 | 0.00 | 0.02 | 0.00 | 23 | 1009.3 |
| 20260503193524 | 71 | 208 | 12.0 | 25.0 | 0.00 | 0.02 | 0.00 | 24 | 1009.4 |
| 20260503193057 | 72 | 148 | 12.0 | 20.0 | 0.00 | 0.02 | 0.00 | 23 | 1009.6 |
| 20260503192522 | 72 | 200 | 13.0 | 17.0 | 0.00 | 0.02 | 0.00 | 22 | 1009.7 |
| 20260503192025 | 72 | 241 | 7.0 | 17.0 | 0.00 | 0.02 | 0.00 | 26 | 1009.6 |
| 20260503191830 | 71 | 173 | 8.0 | 20.0 | 0.00 | 0.02 | 0.00 | 24 | 1009.5 |
| 20260503191023 | 70 | 175 | 11.0 | 20.0 | 0.00 | 0.02 | 0.00 | 24 | 1009.7 |
| 20260503190517 | 71 | 208 | 11.0 | 17.0 | 0.00 | 0.02 | 0.00 | 24 | 1009.8 |
| 20260503190058 | 70 | 246 | 7.0 | 20.0 | 0.00 | 0.02 | 0.00 | 27 | 1010.0 |
| 20260503185518 | 70 | 147 | 8.0 | 21.0 | 0.00 | 0.02 | 0.00 | 25 | 1010.2 |
| 20260503185016 | 70 | 199 | 10.0 | 21.0 | 0.00 | 0.02 | 0.00 | 25 | 1010.2 |
| 20260503184607 | 70 | 226 | 9.0 | 21.0 | 0.00 | 0.02 | 0.00 | 26 | 1010.3 |
| 20260503184018 | 70 | 177 | 16.0 | 21.0 | 0.00 | 0.02 | 0.00 | 24 | 1010.4 |
| 20260503183520 | 69 | 201 | 4.0 | 17.0 | 0.00 | 0.02 | 0.00 | 26 | 1010.3 |
| 20260503183050 | 70 | 212 | 12.0 | 20.0 | 0.00 | 0.02 | 0.00 | 24 | 1010.7 |
| 20260503182527 | 70 | 208 | 14.0 | 20.0 | 0.00 | 0.02 | 0.00 | 24 | 1010.6 |
| 20260503182017 | 70 | 242 | 10.0 | 19.0 | 0.00 | 0.02 | 0.00 | 27 | 1010.6 |
| 20260503181539 | 69 | 221 | 15.0 | 19.0 | 0.00 | 0.02 | 0.00 | 25 | 1010.5 |
| 20260503181014 | 69 | 202 | 11.0 | 19.0 | 0.00 | 0.02 | 0.00 | 25 | 1010.6 |
| 20260503180514 | 69 | 214 | 10.0 | 19.0 | 0.00 | 0.02 | 0.00 | 27 | 1010.6 |
| 20260503180040 | 68 | 210 | 8.0 | 15.0 | 0.00 | 0.02 | 0.00 | 28 | 1010.8 |
| 20260503175512 | 68 | 220 | 11.0 | 14.0 | 0.00 | 0.02 | 0.00 | 27 | 1010.9 |
| 20260503175018 | 67 | 223 | 7.0 | 16.0 | 0.00 | 0.02 | 0.00 | 30 | 1010.7 |
| 20260503174558 | 66 | 245 | 7.0 | 14.0 | 0.00 | 0.02 | 0.00 | 29 | 1010.7 |
| 20260503174013 | 67 | 229 | 7.0 | 17.0 | 0.00 | 0.02 | 0.00 | 31 | 1011.0 |
| 20260503173513 | 67 | 238 | 10.0 | 17.0 | 0.00 | 0.02 | 0.00 | 30 | 1011.0 |
| 20260503173040 | 68 | 248 | 11.0 | 16.0 | 0.00 | 0.02 | 0.00 | 30 | 1011.1 |
| 20260503172514 | 67 | 208 | 9.0 | 16.0 | 0.00 | 0.02 | 0.00 | 32 | 1011.0 |
| 20260503172015 | 67 | 204 | 12.0 | 18.0 | 0.00 | 0.02 | 0.00 | 32 | 1010.9 |
| 20260503171545 | 67 | 223 | 12.0 | 18.0 | 0.00 | 0.02 | 0.00 | 32 | 1010.8 |
| 20260503171016 | 67 | 223 | 12.0 | 17.0 | 0.00 | 0.02 | 0.00 | 31 | 1010.8 |
| 20260503170514 | 66 | 219 | 9.0 | 14.0 | 0.00 | 0.02 | 0.00 | 34 | 1011.0 |
| 20260503160120 | 61 | 209 | 10.0 | 13.0 | 0.00 | 0.02 | 0.00 | 51 | 1011.5 |
| 20260503150514 | 56 | 199 | 9.0 | 13.0 | 0.00 | 0.02 | 0.00 | 63 | 1011.8 |
| 20260503131015 | 46 | 115 | 3.0 | 5.0 | 0.00 | 0.02 | 0.00 | 78 | 1011.9 |
| 20260503130516 | 45 | 105 | 3.0 | 5.0 | 0.00 | 0.02 | 0.00 | 78 | 1011.9 |
| 20260503110521 | 40 | 67 | 0.0 | 3.0 | 0.00 | 0.02 | 0.00 | 86 | 1012.5 |
| 20260503100107 | 40 | 180 | 2.0 | 4.0 | 0.00 | 0.02 | 0.00 | 82 | 1012.9 |